AFR33J FMEP-FMEP

Flight info

Callsign AFR33J
Flight time 0h 6m
Altitude 3000
Route DCT
Aircraft P28B/L-SDGRY/S

Departure

Time 2026-04-23 04:53
Airport Saint-Pierre Pierrefonds Airport (FMEP)

Arrival

Time 2026-04-23 04:59
Airport Saint-Pierre Pierrefonds Airport (FMEP)
Time Latitude Longitude Altitude Speed Heading
2026-04-23 04:46 -21.32010 55.42663 67 ft 0 kts 220°
2026-04-23 04:49 -21.32036 55.42659 62 ft 11 kts 174°
2026-04-23 04:50 -21.32129 55.42592 59 ft 21 kts 223°
2026-04-23 04:50 -21.32090 55.42474 62 ft 20 kts 307°
2026-04-23 04:50 -21.31991 55.42340 58 ft 25 kts 311°
2026-04-23 04:50 -21.31880 55.42204 61 ft 17 kts 330°
2026-04-23 04:51 -21.31894 55.42203 59 ft 12 kts 110°
2026-04-23 04:51 -21.31932 55.42249 61 ft 6 kts 116°
2026-04-23 04:51 -21.31949 55.42277 56 ft 3 kts 132°
2026-04-23 04:51 -21.31976 55.42322 59 ft 19 kts 122°
2026-04-23 04:52 -21.32144 55.42548 62 ft 60 kts 128°
2026-04-23 04:52 -21.32462 55.42967 121 ft 82 kts 125°
2026-04-23 04:52 -21.32872 55.43463 231 ft 95 kts 132°
2026-04-23 04:52 -21.33343 55.43985 392 ft 100 kts 130°
2026-04-23 04:53 -21.33851 55.44541 532 ft 106 kts 135°
2026-04-23 04:53 -21.34351 55.45093 686 ft 97 kts 141°
2026-04-23 04:53 -21.34980 55.45021 786 ft 106 kts 221°
2026-04-23 04:53 -21.35503 55.44486 947 ft 105 kts 223°
2026-04-23 04:54 -21.36026 55.43929 999 ft 113 kts 231°
2026-04-23 04:54 -21.35854 55.43160 968 ft 120 kts 309°
2026-04-23 04:54 -21.35401 55.42407 987 ft 118 kts 304°
2026-04-23 04:54 -21.34918 55.41711 1025 ft 114 kts 311°
2026-04-23 04:55 -21.34533 55.40963 1015 ft 113 kts 300°
2026-04-23 04:55 -21.34064 55.40279 993 ft 111 kts 309°
2026-04-23 04:55 -21.33616 55.39657 1007 ft 102 kts 307°
2026-04-23 04:55 -21.33228 55.39034 993 ft 100 kts 306°
2026-04-23 04:56 -21.32833 55.38429 990 ft 99 kts 305°
2026-04-23 04:56 -21.32410 55.37855 1008 ft 98 kts 317°
2026-04-23 04:56 -21.31919 55.37369 988 ft 96 kts 330°
2026-04-23 04:56 -21.31322 55.37502 807 ft 99 kts 36°
2026-04-23 04:57 -21.30756 55.37967 714 ft 104 kts 44°
2026-04-23 04:57 -21.30173 55.38497 609 ft 112 kts 42°
2026-04-23 04:57 -21.29631 55.39038 560 ft 98 kts 64°
2026-04-23 04:57 -21.29812 55.39667 564 ft 96 kts 134°
2026-04-23 04:58 -21.30272 55.40153 534 ft 93 kts 134°
2026-04-23 04:58 -21.30695 55.40686 383 ft 95 kts 127°
2026-04-23 04:58 -21.31107 55.41198 237 ft 87 kts 130°
2026-04-23 04:58 -21.31471 55.41666 86 ft 77 kts 126°
2026-04-23 04:59 -21.31762 55.42041 62 ft 54 kts 133°
2026-04-23 04:59 -21.31972 55.42318 59 ft 44 kts 130°
2026-04-23 04:59 -21.32204 55.42633 86 ft 65 kts 128°
2026-04-23 04:59 -21.32526 55.43046 169 ft 76 kts 124°
2026-04-23 05:00 -21.32883 55.43504 313 ft 83 kts 129°
2026-04-23 05:00 -21.33285 55.43986 464 ft 91 kts 133°
2026-04-23 05:00 -21.33743 55.44497 627 ft 98 kts 131°
2026-04-23 05:00 -21.34352 55.44676 731 ft 106 kts 207°
2026-04-23 05:01 -21.34900 55.44126 817 ft 109 kts 216°
2026-04-23 05:01 -21.35456 55.43565 928 ft 109 kts 218°
2026-04-23 05:01 -21.36023 55.43010 999 ft 112 kts 218°
2026-04-23 05:01 -21.36388 55.42262 992 ft 128 kts 278°
2026-04-23 05:02 -21.35922 55.41433 996 ft 134 kts 309°
2026-04-23 05:02 -21.35299 55.40670 1009 ft 136 kts 315°
2026-04-23 05:02 -21.34706 55.39868 1005 ft 137 kts 308°
2026-04-23 05:02 -21.34180 55.39020 995 ft 132 kts 304°
2026-04-23 05:03 -21.33662 55.38240 974 ft 126 kts 308°
2026-04-23 05:03 -21.33140 55.37550 1020 ft 113 kts 313°
2026-04-23 05:03 -21.32661 55.36913 1028 ft 109 kts 311°
2026-04-23 05:03 -21.32028 55.36765 934 ft 101 kts 38°
2026-04-23 05:04 -21.31454 55.37205 807 ft 101 kts 41°
2026-04-23 05:04 -21.30865 55.37662 675 ft 106 kts 40°
2026-04-23 05:04 -21.30276 55.38154 561 ft 108 kts 46°
2026-04-23 05:04 -21.29773 55.38669 550 ft 90 kts 66°
2026-04-23 05:05 -21.29881 55.39288 484 ft 87 kts 110°
2026-04-23 05:05 -21.30127 55.39872 449 ft 85 kts 120°
2026-04-23 05:05 -21.30350 55.40205 464 ft 81 kts 127°
2026-04-23 05:05 -21.30699 55.40677 404 ft 81 kts 126°
2026-04-23 05:06 -21.31047 55.41126 272 ft 75 kts 130°
2026-04-23 05:06 -21.31377 55.41536 103 ft 69 kts 125°
2026-04-23 05:06 -21.31648 55.41891 63 ft 52 kts 130°
2026-04-23 05:06 -21.31858 55.42168 61 ft 57 kts 127°
2026-04-23 05:07 -21.32182 55.42598 84 ft 87 kts 125°
2026-04-23 05:07 -21.32611 55.43140 147 ft 104 kts 130°
2026-04-23 05:07 -21.33122 55.43723 309 ft 110 kts 134°
2026-04-23 05:07 -21.33668 55.44328 469 ft 116 kts 135°
2026-04-23 05:08 -21.34235 55.44950 593 ft 116 kts 131°
2026-04-23 05:08 -21.34530 55.45689 724 ft 114 kts 74°
2026-04-23 05:08 -21.33961 55.46250 874 ft 112 kts 40°
2026-04-23 05:08 -21.33314 55.46687 968 ft 112 kts 37°
2026-04-23 05:09 -21.32609 55.46568 1008 ft 120 kts 309°
2026-04-23 05:09 -21.32036 55.45873 1037 ft 127 kts 311°
2026-04-23 05:09 -21.31452 55.45124 1021 ft 133 kts 312°
2026-04-23 05:09 -21.30858 55.44367 1041 ft 133 kts 308°
2026-04-23 05:10 -21.30315 55.43568 1012 ft 134 kts 307°
2026-04-23 05:10 -21.29781 55.42779 1008 ft 125 kts 310°
2026-04-23 05:10 -21.29252 55.42092 1061 ft 115 kts 311°
2026-04-23 05:10 -21.28742 55.41452 1039 ft 112 kts 312°
2026-04-23 05:11 -21.28249 55.40818 998 ft 111 kts 295°
2026-04-23 05:11 -21.28493 55.40097 846 ft 114 kts 220°
2026-04-23 05:11 -21.29046 55.39492 716 ft 108 kts 208°
2026-04-23 05:11 -21.29665 55.39668 499 ft 103 kts 145°
2026-04-23 05:12 -21.30208 55.40086 436 ft 90 kts 139°
2026-04-23 05:12 -21.30609 55.40541 365 ft 80 kts 126°
2026-04-23 05:12 -21.30940 55.40981 241 ft 70 kts 127°
2026-04-23 05:12 -21.31238 55.41361 147 ft 64 kts 126°
2026-04-23 05:13 -21.31507 55.41705 67 ft 55 kts 126°
2026-04-23 05:13 -21.31704 55.41965 62 ft 38 kts 128°
2026-04-23 05:13 -21.31864 55.42178 61 ft 35 kts 127°
2026-04-23 05:14 -21.32064 55.42471 62 ft 8 kts 346°
2026-04-23 05:14 -21.32082 55.42460 62 ft 14 kts 132°
2026-04-23 05:14 -21.32144 55.42554 61 ft 15 kts 98°
2026-04-23 05:14 -21.32096 55.42617 66 ft 8 kts 38°
2026-04-23 05:15 -21.32056 55.42651 67 ft 8 kts 43°
2026-04-23 05:15 -21.32028 55.42702 68 ft 8 kts 17°
2026-04-23 05:15 -21.32015 55.42659 62 ft 7 kts 222°
2026-04-23 05:15 -21.32022 55.42653 65 ft 0 kts 214°